TimePST,TemperatureF,Dew PointF,Humidity,Sea Level PressureIn,VisibilityMPH,Wind Direction,Wind SpeedMPH,Gust SpeedMPH,PrecipitationIn,Events,Conditions,WindDirDegrees,DateUTC
12:55 AM,46.0,14.0,28,30.10,10.0,ENE,6.9,-,N/A,,Clear,60,2014-01-07 08:55:00
1:55 AM,46.9,12.0,24,30.10,10.0,ENE,6.9,-,N/A,,Clear,70,2014-01-07 09:55:00
2:55 AM,46.9,12.0,24,30.10,10.0,ENE,9.2,-,N/A,,Clear,70,2014-01-07 10:55:00
3:55 AM,46.0,12.0,25,30.09,10.0,ENE,8.1,-,N/A,,Clear,70,2014-01-07 11:55:00
4:55 AM,48.9,10.0,21,30.07,10.0,East,9.2,-,N/A,,Clear,80,2014-01-07 12:55:00
5:55 AM,46.9,10.9,23,30.09,10.0,ENE,9.2,-,N/A,,Clear,70,2014-01-07 13:55:00
6:55 AM,45.0,9.0,23,30.09,10.0,ESE,5.8,-,N/A,,Clear,110,2014-01-07 14:55:00
7:55 AM,55.0,10.0,17,30.10,10.0,East,5.8,-,N/A,,Partly Cloudy,80,2014-01-07 15:55:00
8:55 AM,64.0,8.1,11,30.12,10.0,Calm,Calm,-,N/A,,Partly Cloudy,0,2014-01-07 16:55:00
9:55 AM,64.9,6.1,10,30.13,10.0,South,6.9,-,N/A,,Scattered Clouds,170,2014-01-07 17:55:00
10:55 AM,69.1,6.1,9,30.12,10.0,South,8.1,-,N/A,,Scattered Clouds,190,2014-01-07 18:55:00
11:55 AM,68.0,19.9,16,30.09,10.0,South,5.8,-,N/A,,Mostly Cloudy,190,2014-01-07 19:55:00
12:55 PM,69.1,18.0,14,30.05,10.0,Variable,4.6,-,N/A,,Mostly Cloudy,0,2014-01-07 20:55:00
1:55 PM,71.1,33.1,25,30.04,10.0,South,8.1,-,N/A,,Mostly Cloudy,180,2014-01-07 21:55:00
2:55 PM,69.1,39.0,33,30.03,10.0,SSW,8.1,-,N/A,,Scattered Clouds,200,2014-01-07 22:55:00
3:55 PM,64.9,45.0,48,30.06,10.0,WSW,9.2,-,N/A,,Scattered Clouds,250,2014-01-07 23:55:00
4:55 PM,60.1,46.0,60,30.06,10.0,SW,4.6,-,N/A,,Scattered Clouds,230,2014-01-08 00:55:00
5:55 PM,54.0,46.0,75,30.06,10.0,South,3.5,-,N/A,,Mostly Cloudy,190,2014-01-08 01:55:00
6:55 PM,55.0,48.0,77,30.06,10.0,SE,3.5,-,N/A,,Mostly Cloudy,130,2014-01-08 02:55:00
7:55 PM,54.0,48.9,83,30.06,10.0,SSE,3.5,-,N/A,,Scattered Clouds,150,2014-01-08 03:55:00
8:55 PM,50.0,46.0,86,30.07,10.0,Calm,Calm,-,N/A,,Scattered Clouds,0,2014-01-08 04:55:00
9:55 PM,55.0,48.9,80,30.09,10.0,North,3.5,-,N/A,,Mostly Cloudy,10,2014-01-08 05:55:00
10:13 PM,55.0,48.0,77,30.09,10.0,East,3.5,-,N/A,,Overcast,80,2014-01-08 06:13:00
10:55 PM,55.0,51.1,86,30.07,5.0,ESE,4.6,-,N/A,,Mostly Cloudy,120,2014-01-08 06:55:00
11:22 PM,52.0,48.9,89,30.09,3.0,Calm,Calm,-,N/A,,Scattered Clouds,0,2014-01-08 07:22:00
11:45 PM,51.1,48.0,89,30.09,4.0,Calm,Calm,-,N/A,,Mostly Cloudy,0,2014-01-08 07:45:00
11:55 PM,50.0,46.0,86,30.08,3.0,Calm,Calm,-,N/A,,Overcast,0,2014-01-08 07:55:00